Charleston, SC

6:22 PM EDT on April 23, 2017 (GMT -0400)
Charleston Air Force Base-International

Weather History for KCHS - October, 2011

Change the Weather History Date:

Monday, October 31, 2011

  Actual Average Record
Temperature  
Mean Temperature 56 °F 63 °F  
Max Temperature 65 °F 74 °F 87 °F (1961)
Min Temperature 47 °F 52 °F 35 °F (1952)
Degree Days  
Heating Degree Days 9 4  
Month to date heating degree days 92 66  
Since 1 July heating degree days 92 69  
Cooling Degree Days 0 2  
Month to date cooling degree days 77 126  
Year to date cooling degree days 2664 2264  
Growing Degree Days 4 (Base 50)    
Moisture  
Dew Point 47 °F    
Average Humidity 80    
Maximum Humidity 96    
Minimum Humidity 64    
Precipitation  
Precipitation 0.00 in 0.09 in 0.90 in (1985)
Month to date precipitation 1.91 3.75  
Year to date precipitation 34.96 45.49  
Snow  
Snow 0.00 in 0.00 in - ()
Month to date snowfall 0.0  
Since 1 July snowfall 0.0 0.0  
Since 1 September snowfall 0.0 0.0  
Snow Depth 0.00 in    
Sea Level Pressure  
Sea Level Pressure 30.18 in    
Wind  
Wind Speed 10 mph (NNE)    
Max Wind Speed 14 mph    
Max Gust Speed 16 mph    
Visibility 10 miles    
Events      
T = Trace of Precipitation, MM = Missing Value Source: NWS Daily Summary

Daily Weather History Graph

Daily Weather History Graph

Search for Another Location

Airport or City:

Trip Planner

Search our weather history database for the weather conditions in past years. The results will help you decide how hot, cold, wet, or windy it might be!

Date:

Astronomy

Oct. 31, 2011 Rise Set
Actual Time 7:36 AM EDT 6:30 PM EDT
Civil Twilight 7:11 AM EDT 6:55 PM EDT
Nautical Twilight 6:42 AM EDT 7:24 PM EDT
Astronomical Twilight 6:13 AM EDT 7:53 PM EDT
Moon 12:36 PM EDT (10/31) 11:10 PM EDT (10/31)
Length of Visible Light 11h 44m
Length of Day
10h 53m
Waxing Crescent, 29% of the Moon is Illuminated
Oct 31
Waxing Crescent
Nov 2
First Quarter
Nov 10
Full
Nov 18
Last Quarter
Nov 25
New

Hourly Weather History & Observations

Time (EDT) Temp. Dew Point Humidity Pressure Visibility Wind Dir Wind Speed Gust Speed Precip Events Conditions
12:56 AM 46.9 °F 39.9 °F 77% 30.28 in 10.0 mi NNE 6.9 mph - N/A   Mostly Cloudy
1:56 AM 46.9 °F 41.0 °F 80% 30.26 in 10.0 mi NE 9.2 mph - N/A   Partly Cloudy
2:56 AM 48.9 °F 41.0 °F 74% 30.25 in 10.0 mi NE 8.1 mph - N/A   Mostly Cloudy
3:56 AM 48.9 °F 41.0 °F 74% 30.24 in 10.0 mi NE 10.4 mph - N/A   Mostly Cloudy
4:56 AM 50.0 °F 41.0 °F 71% 30.23 in 10.0 mi NE 9.2 mph - N/A   Scattered Clouds
5:56 AM 50.0 °F 42.1 °F 74% 30.23 in 10.0 mi NNE 10.4 mph - N/A   Mostly Cloudy
6:56 AM 50.0 °F 43.0 °F 77% 30.21 in 10.0 mi NE 9.2 mph - N/A   Mostly Cloudy
7:56 AM 51.1 °F 44.1 °F 77% 30.21 in 10.0 mi NE 6.9 mph - N/A   Mostly Cloudy
8:56 AM 52.0 °F 45.0 °F 77% 30.22 in 10.0 mi NE 6.9 mph - N/A   Mostly Cloudy
9:56 AM 53.1 °F 46.9 °F 80% 30.22 in 10.0 mi NE 8.1 mph - N/A   Overcast
10:56 AM 55.0 °F 48.0 °F 77% 30.20 in 10.0 mi NE 10.4 mph - N/A   Overcast
11:56 AM 55.4 °F 50.0 °F 82% 30.19 in 10.0 mi NNE 6.9 mph - N/A   Overcast
12:56 PM 58.5 °F 51.1 °F 76% 30.17 in 10.0 mi North 6.9 mph - N/A   Overcast
1:56 PM 61.2 °F 51.1 °F 69% 30.14 in 10.0 mi North 6.9 mph 16.1 mph N/A   Mostly Cloudy
2:56 PM 62.6 °F 51.1 °F 66% 30.12 in 10.0 mi North 11.5 mph - N/A   Mostly Cloudy
3:56 PM 63.0 °F 50.0 °F 63% 30.11 in 10.0 mi NNE 11.5 mph - N/A   Scattered Clouds
4:56 PM 60.1 °F 48.0 °F 64% 30.12 in 10.0 mi North 13.8 mph - N/A   Partly Cloudy
5:56 PM 55.9 °F 46.9 °F 72% 30.12 in 10.0 mi North 13.8 mph - N/A   Mostly Cloudy
6:56 PM 55.0 °F 48.9 °F 80% 30.13 in 10.0 mi North 9.2 mph - N/A   Overcast
7:16 PM 55.4 °F 48.2 °F 77% 30.13 in 10.0 mi North 8.1 mph - N/A   Overcast
7:56 PM 55.0 °F 50.0 °F 83% 30.14 in 10.0 mi North 13.8 mph - N/A   Overcast
8:56 PM 54.0 °F 51.1 °F 90% 30.15 in 10.0 mi North 10.4 mph - N/A   Mostly Cloudy
9:17 PM 53.6 °F 51.8 °F 94% 30.15 in 10.0 mi North 8.1 mph - N/A   Scattered Clouds
9:56 PM 52.0 °F 50.0 °F 93% 30.16 in 10.0 mi North 11.5 mph - N/A   Mostly Cloudy
10:56 PM 51.1 °F 48.9 °F 92% 30.16 in 10.0 mi North 10.4 mph - N/A   Mostly Cloudy
11:43 PM 51.8 °F 48.2 °F 88% 30.17 in 10.0 mi North 10.4 mph - N/A   Mostly Cloudy
11:56 PM 51.1 °F 48.9 °F 92% 30.17 in 10.0 mi North 9.2 mph - N/A   Mostly Cloudy